N1157K KSAN-KAVX

Flight info

Callsign N1157K
Flight time 0h 28m
Altitude VFR/045
Route VFR NW
Aircraft M20P/L-VGD/C

Departure

Time 2026-05-04 02:24
Airport San Diego International Airport (KSAN)

Arrival

Time 2026-05-04 02:53
Airport Catalina Airport (KAVX)
Time Latitude Longitude Altitude Speed Heading
2026-05-04 02:20 32.73353 -117.17866 15 ft 0 kts 18°
2026-05-04 02:22 32.73344 -117.17945 17 ft 18 kts 233°
2026-05-04 02:22 32.73229 -117.17949 14 ft 21 kts 121°
2026-05-04 02:22 32.73176 -117.17748 15 ft 31 kts 107°
2026-05-04 02:23 32.73110 -117.17562 14 ft 15 kts 138°
2026-05-04 02:23 32.73104 -117.17557 14 ft 0 kts 145°
2026-05-04 02:23 32.73080 -117.17547 14 ft 15 kts 171°
2026-05-04 02:24 32.73056 -117.17727 13 ft 47 kts 285°
2026-05-04 02:24 32.73194 -117.18290 157 ft 81 kts 284°
2026-05-04 02:24 32.73370 -117.18956 466 ft 91 kts 291°
2026-05-04 02:24 32.73901 -117.19558 688 ft 116 kts 319°
2026-05-04 02:25 32.74578 -117.20133 1142 ft 121 kts 320°
2026-05-04 02:25 32.75259 -117.20730 1567 ft 125 kts 319°
2026-05-04 02:25 32.75943 -117.21391 1976 ft 125 kts 317°
2026-05-04 02:25 32.76621 -117.22046 2397 ft 126 kts 318°
2026-05-04 02:26 32.77328 -117.22677 2893 ft 120 kts 321°
2026-05-04 02:26 32.78047 -117.23247 3293 ft 127 kts 322°
2026-05-04 02:26 32.78812 -117.23816 3661 ft 132 kts 324°
2026-05-04 02:26 32.79444 -117.24580 4069 ft 131 kts 294°
2026-05-04 02:27 32.79862 -117.25558 4467 ft 136 kts 296°
2026-05-04 02:27 32.80383 -117.26621 4508 ft 161 kts 299°
2026-05-04 02:27 32.81006 -117.27816 4510 ft 177 kts 300°
2026-05-04 02:27 32.81682 -117.29086 4505 ft 186 kts 300°
2026-05-04 02:28 32.82385 -117.30408 4502 ft 191 kts 300°
2026-05-04 02:28 32.83095 -117.31744 4502 ft 194 kts 300°
2026-05-04 02:28 32.83823 -117.33116 4503 ft 195 kts 300°
2026-05-04 02:28 32.84543 -117.34476 4502 ft 194 kts 300°
2026-05-04 02:29 32.85265 -117.35837 4503 ft 194 kts 300°
2026-05-04 02:29 32.85985 -117.37196 4497 ft 195 kts 300°
2026-05-04 02:29 32.86706 -117.38558 4497 ft 194 kts 300°
2026-05-04 02:29 32.87427 -117.39919 4492 ft 195 kts 300°
2026-05-04 02:30 32.88150 -117.41286 4492 ft 195 kts 300°
2026-05-04 02:30 32.88874 -117.42654 4492 ft 196 kts 300°
2026-05-04 02:30 32.89599 -117.44024 4491 ft 196 kts 300°
2026-05-04 02:30 32.90323 -117.45394 4483 ft 195 kts 300°
2026-05-04 02:31 32.91045 -117.46761 4482 ft 195 kts 300°
2026-05-04 02:31 32.91766 -117.48128 4482 ft 195 kts 300°
2026-05-04 02:31 32.92489 -117.49496 4482 ft 195 kts 300°
2026-05-04 02:31 32.93213 -117.50865 4487 ft 196 kts 300°
2026-05-04 02:32 32.93936 -117.52237 4483 ft 195 kts 300°
2026-05-04 02:32 32.94415 -117.53145 4485 ft 195 kts 300°
2026-05-04 02:32 32.95135 -117.54510 4486 ft 195 kts 300°
2026-05-04 02:32 32.95857 -117.55881 4484 ft 195 kts 300°
2026-05-04 02:33 32.96576 -117.57245 4482 ft 195 kts 300°
2026-05-04 02:33 32.97297 -117.58612 4482 ft 195 kts 300°
2026-05-04 02:33 32.98015 -117.59977 4493 ft 194 kts 300°
2026-05-04 02:33 32.98733 -117.61340 4491 ft 194 kts 300°
2026-05-04 02:34 32.99452 -117.62706 4493 ft 195 kts 300°
2026-05-04 02:34 33.00175 -117.64083 4494 ft 197 kts 300°
2026-05-04 02:34 33.00903 -117.65468 4496 ft 198 kts 301°
2026-05-04 02:34 33.01635 -117.66858 4492 ft 198 kts 300°
2026-05-04 02:35 33.02364 -117.68247 4495 ft 198 kts 300°
2026-05-04 02:35 33.03094 -117.69639 4496 ft 198 kts 300°
2026-05-04 02:35 33.03822 -117.71030 4488 ft 198 kts 300°
2026-05-04 02:35 33.04550 -117.72419 4491 ft 197 kts 300°
2026-05-04 02:36 33.05278 -117.73799 4492 ft 197 kts 301°
2026-05-04 02:36 33.06010 -117.75185 4494 ft 197 kts 300°
2026-05-04 02:36 33.06736 -117.76572 4491 ft 197 kts 301°
2026-05-04 02:36 33.07460 -117.77961 4492 ft 196 kts 300°
2026-05-04 02:37 33.08180 -117.79341 4497 ft 196 kts 300°
2026-05-04 02:37 33.08905 -117.80723 4499 ft 196 kts 300°
2026-05-04 02:37 33.09630 -117.82102 4501 ft 196 kts 300°
2026-05-04 02:37 33.10350 -117.83480 4509 ft 195 kts 300°
2026-05-04 02:38 33.11072 -117.84859 4506 ft 197 kts 300°
2026-05-04 02:38 33.11796 -117.86245 4507 ft 197 kts 300°
2026-05-04 02:38 33.12523 -117.87637 4506 ft 198 kts 301°
2026-05-04 02:38 33.13252 -117.89031 4505 ft 198 kts 300°
2026-05-04 02:39 33.13978 -117.90424 4505 ft 198 kts 300°
2026-05-04 02:39 33.14703 -117.91816 4502 ft 197 kts 300°
2026-05-04 02:39 33.15431 -117.93208 4503 ft 198 kts 300°
2026-05-04 02:39 33.16192 -117.94577 4498 ft 199 kts 309°
2026-05-04 02:40 33.17246 -117.95651 4509 ft 200 kts 320°
2026-05-04 02:40 33.18375 -117.96636 4433 ft 203 kts 321°
2026-05-04 02:40 33.19523 -117.97635 4335 ft 206 kts 321°
2026-05-04 02:40 33.20683 -117.98643 4239 ft 207 kts 321°
2026-05-04 02:41 33.21829 -117.99638 4114 ft 208 kts 321°
2026-05-04 02:41 33.23016 -118.00667 3960 ft 208 kts 321°
2026-05-04 02:41 33.24186 -118.01688 3819 ft 209 kts 321°
2026-05-04 02:41 33.25355 -118.02719 3658 ft 209 kts 321°
2026-05-04 02:42 33.26523 -118.03746 3511 ft 209 kts 321°
2026-05-04 02:42 33.27695 -118.04767 3362 ft 205 kts 321°
2026-05-04 02:42 33.28792 -118.05726 3211 ft 193 kts 320°
2026-05-04 02:42 33.29872 -118.06656 3049 ft 185 kts 321°
2026-05-04 02:43 33.30898 -118.07532 2993 ft 176 kts 321°
2026-05-04 02:43 33.31874 -118.08357 2986 ft 168 kts 321°
2026-05-04 02:43 33.32799 -118.09139 2991 ft 162 kts 321°
2026-05-04 02:43 33.33713 -118.09900 2994 ft 159 kts 321°
2026-05-04 02:44 33.34606 -118.10669 2973 ft 158 kts 322°
2026-05-04 02:44 33.35479 -118.11480 2970 ft 160 kts 321°
2026-05-04 02:44 33.36360 -118.12292 2971 ft 160 kts 321°
2026-05-04 02:44 33.37244 -118.13107 2971 ft 160 kts 321°
2026-05-04 02:45 33.38126 -118.13923 2971 ft 160 kts 321°
2026-05-04 02:45 33.38755 -118.14973 2968 ft 158 kts 282°
2026-05-04 02:45 33.38543 -118.16227 2971 ft 159 kts 240°
2026-05-04 02:45 33.37881 -118.17396 2987 ft 177 kts 236°
2026-05-04 02:46 33.37351 -118.18748 2987 ft 186 kts 261°
2026-05-04 02:46 33.37268 -118.20313 2988 ft 192 kts 268°
2026-05-04 02:46 33.37227 -118.21922 2990 ft 195 kts 268°
2026-05-04 02:46 33.37187 -118.23551 2988 ft 197 kts 268°
2026-05-04 02:47 33.37095 -118.25180 2988 ft 197 kts 259°
2026-05-04 02:47 33.36754 -118.26770 2987 ft 198 kts 255°
2026-05-04 02:47 33.36390 -118.28300 2985 ft 182 kts 254°
2026-05-04 02:47 33.36053 -118.29696 2973 ft 169 kts 254°
2026-05-04 02:48 33.35739 -118.31013 2969 ft 161 kts 254°
2026-05-04 02:48 33.35441 -118.32254 2969 ft 148 kts 254°
2026-05-04 02:48 33.35215 -118.33391 2967 ft 134 kts 269°
2026-05-04 02:48 33.35273 -118.34453 2966 ft 124 kts 274°
2026-05-04 02:49 33.35342 -118.35508 2970 ft 130 kts 274°
2026-05-04 02:49 33.35412 -118.36605 2970 ft 134 kts 274°
2026-05-04 02:49 33.35483 -118.37722 2975 ft 135 kts 274°
2026-05-04 02:49 33.35905 -118.38673 2940 ft 139 kts 319°
2026-05-04 02:50 33.36665 -118.39352 2910 ft 135 kts 324°
2026-05-04 02:50 33.37481 -118.39961 2835 ft 142 kts 329°
2026-05-04 02:50 33.38353 -118.40504 2786 ft 141 kts 333°
2026-05-04 02:50 33.39222 -118.40570 2789 ft 131 kts 46°
2026-05-04 02:51 33.39843 -118.39703 2578 ft 138 kts 50°
2026-05-04 02:51 33.40413 -118.38780 2279 ft 132 kts 55°
2026-05-04 02:51 33.40877 -118.37928 1936 ft 114 kts 57°
2026-05-04 02:51 33.41456 -118.37551 1877 ft 91 kts 352°
2026-05-04 02:52 33.42025 -118.37885 1825 ft 98 kts 321°
2026-05-04 02:52 33.42271 -118.38548 1820 ft 98 kts 246°
2026-05-04 02:52 33.41893 -118.39204 1822 ft 94 kts 239°
2026-05-04 02:52 33.41514 -118.39856 1777 ft 98 kts 233°
2026-05-04 02:53 33.41113 -118.40505 1743 ft 95 kts 238°
2026-05-04 02:53 33.40778 -118.41104 1575 ft 74 kts 236°
2026-05-04 02:53 33.40570 -118.41461 1574 ft 27 kts 236°
2026-05-04 02:53 33.40505 -118.41518 1579 ft 0 kts 151°
2026-05-04 02:54 33.40502 -118.41511 1579 ft 8 kts 85°
2026-05-04 02:54 33.40582 -118.41367 1568 ft 27 kts 50°
2026-05-04 02:54 33.40705 -118.41166 1551 ft 24 kts 53°
2026-05-04 02:55 33.40717 -118.41145 1549 ft 0 kts 58°